STARLINK-35270, 65882

Orbit data source: Space-Track

STARLINK-35270, 65882 is a payload satellite owned by SpaceX/Seattle (US) in LEO that was launched on Tue, 07 Oct 2025 UTC via an FALCON 9 launch vehicle from the Air Force Eastern Test Range (AFETR). Payload-class satellites include a variety of spacecraft equipped with specific instruments for various scientific and technological missions. These include communications satellites like Starlink; space stations such as the ISS; scientific satellites like the Hubble; Earth observation satellites from companies like Planet Labs, Umbra, and HawkEye 360; GPS; miniature CubeSats for education and research; and military/defense satellites.

Loading next visibility...
Identifier
65882, 2025-224A
Orbit
LEO
Country
Flag of USUS
Related business
Manufacturer
SpaceX/Seattle
Mission
Operational Commercial Communications
Bus & Motor
STARLINK V2MO, Unknown motor
Mass
575 kg wet, ~530 kg dry
Launch date (UTC)
2025-10-07 (5 months ago)
Launch vehicle
FALCON 9
Launch site
Air Force Eastern Test Range (AFETR)
Object type
Payload
Rocket body
Debris
Shape & HBR
Box + 2 Pan, 17.7 m
Radar Cross Section
36.964 m²

Expand to show TLE details & history
Last TLE update: 7 hours ago

TLE from 7 hours ago
0 STARLINK-35270
1 65882U 25224A   26062.35131026  .00034735  00000-0  11793-2 0  9996
2 65882  53.1593  40.8106 0001206  75.5340 284.5794 15.30203364 23853
Epoch: 2026-03-03T08:25Z
TLE epoch observation values (Epoch: 2026-03-03T08:25:53.206Z)
Latitude
-0.00006°
Longitude
113.20725°
Altitude
475.897 km
Speed
7.629 km/s
True Right ascension
02h 43m 14s
True Declination
0° 00' 00"
Sunlit
Object was in daylight at epoch
Visualization orbit readout
Latitude
Unknown
Longitude
Unknown
Altitude
Unknown
Speed
Unknown
Apparent Right ascension
Unknown
Apparent Declination
Unknown
Sunlit
N/A
Visualization observer readout
Local Sidereal Time
19:32:33
Azimuth
Unknown
Elevation
Unknown
Doppler factor
Unknown
Orbital elements
Apogee altitude
476.288 km
Perigee altitude
474.635 km
Semi-major axis
6,853.599 km
Eccentricity
0.00012
Inclination
53.1593°
RAAN
40.8106°
Arg. of periapsis
75.534°
True anomaly
284.56602°
Mean anomaly
284.5794°
Eccentric anomaly
284.57271°
Mean motion
3.8253 °/min
Orbital period
94.11 mins
BSTAR
0.0011793
Loading maneuver chart data...
Computing Atmospheric mass density...
Loading historical data...
Loading historical data...
Loading historical data...
Loading historical data...
Loading historical data...
Loading historical data...
Loading historical data...

Documentation

Showing up to 5 results
|